Zurück zum Katalog

SL-18 DEB

AktivLEO
NORAD 28292·DEBRIS·🇷🇺 Russia

Gestartet Mar 25, 1993 von Plesetsk Cosmodrome

Loading…

Nächste Überflüge (nächste 24 Stunden)

TLE

AktuellSource: Space-Track

Epoche: Sep 14, 2026, 08:06 UTC

1 28292U 93014V   26257.33758716  .00000970  00000-0  24264-3 0  9999
2 28292  75.7528 251.3767 0129986 210.3487 149.0113 14.47285584696895

Verfolge SL-18 DEB in Echtzeit mit AllMySat

Download on the App Store